LYSAHORA Weather Reports


Display with metric or nautical units.
time (UTC)temp
F
wind
direction
speed
MPH
gust
MPH
rain 1hr
in
rain 24hr
in
rain mn
in
humidity
%
barometer
mb
20260508002211 43 50 7.0 0.0 0.00 0.00 0.00 93
20260507232212 43 40 7.0 0.0 0.00 0.00 0.00 86
20260507222518 43 360 9.0 0.0 0.00 0.00 0.00 93
20260507212214 41 330 9.0 0.0 0.00 0.00 0.00 93
20260507202214 45 30 12.0 0.0 0.00 0.00 0.00 93
20260507192316 46 360 7.0 0.0 0.00 0.00 0.00 87
20260507182245 46 240 7.0 0.0 0.00 0.00 0.00 87
20260507172229 50 0 5.0 0.0 0.00 0.00 0.00 81
20260507162533 48 0 5.0 0.0 0.00 0.00 0.00 87
20260507152214 50 0 5.0 0.0 0.00 0.00 0.00 81
20260507142214 48 270 9.0 0.0 0.00 0.00 0.00 87
20260507132315 50 280 7.0 0.0 0.00 0.00 0.00 76
20260507122213 54 0 5.0 0.0 0.00 0.00 0.00 71
20260507112229 54 0 5.0 0.0 0.00 0.00 0.00 71
20260507102413 54 0 5.0 0.0 0.00 0.00 0.00 71
20260507092213 52 0 5.0 0.0 0.00 0.00 0.00 76
20260507082212 50 0 5.0 0.0 0.00 0.00 0.00 81
20260507072214 50 250 9.0 0.0 0.00 0.00 0.00 87
20260507062212 46 210 12.0 0.0 0.00 0.00 0.00 93
20260507052212 45 200 12.0 0.0 0.00 0.00 0.00 99
20260507042414 45 200 7.0 0.0 0.00 0.00 0.00 99
20260507032213 45 180 18.0 0.0 0.00 0.00 0.00 99
20260507022211 46 170 20.0 0.0 0.00 0.00 0.00 93
20260507012312 46 190 26.0 38.0 0.00 0.00 0.00 93